[Date Prev][Date Next][Thread Prev][Thread Next] - [Date Index][Thread Index][Author Index]
2 Line ISS Keps 1-9
- Subject: [sarex] 2 Line ISS Keps 1-9
- From: "Dave Larsen PhD" <doc@xxxxxxxxxxx>
- Date: Sun, 8 Jan 2006 19:08:19 -0800
ISS
1 25544U 98067A 06009.02731481 .00013889 00000-0 99870-4 0 1157
2 25544 051.6441 285.8097 0010834 132.0268 261.1735 15.73883380408081
----
Via the sarex mailing list at AMSAT.ORG courtesy of AMSAT-NA.
To unsubscribe, send "unsubscribe sarex" to Majordomo@amsat.org
AMSAT Home